Meteopurmerend
purmerend
Purmerend - Baaienwijk



My webcam  My webcam


waarschuwing voor Onweer Meer informatie blitzortung!


Regen radar Meer informatie rain snow radar


Bezoek onze andere website:

CandyAppleRed WebdesignWebdesign Purmerend Candy Apple Red

MeteopurmerendBlog

Template documentation
and downloads



Onweer van: 26-07-2021 13:00 tot: 21:00 waarschuwing voor: Onweer niveau: Geel info button
Enkele onweersbuien, lokaal met hagel en veel neerslag in korte tijd.Kans op blikseminslag, hagel en veel neerslag in korte tijd.Verkeer en buitenactiviteiten kunnen hinder ondervinden.Mijd open water en open gebied, schuil niet onder bomen.Volg weerberichten en waarschuwingen.

15 daagse weersverwachting Amiens (FR)

  • Overzicht
  • Per uur
  • 15 dagen
  • Extra
  • Vergelijk
  • Kaarten
  • Dagkaart
  • Meer »
  • Info
  • Statistieken
  • Directe link
    Temp 6h Neerslag Wind  
 06:15     21:41    Daglengte: 15:26 Vandaag
20:00
20°
3.5 mm
3
 06:16     21:39    Daglengte: 15:23 Morgen
02:00
16°
 
2
08:00
16°
 
1
14:00
19°
2.7 mm
5
20:00
18°
6.0 mm
4
 06:17     21:38    Daglengte: 15:21 Woensdag 28 Jul
02:00
16°
2.0 mm
4
08:00
15°
 
5
14:00
21°
3.1 mm
7
20:00
18°
16.5 mm
5
 06:19     21:37    Daglengte: 15:18 Donderdag 29 Jul
02:00
14°
6.5 mm
4
08:00
14°
 
6
Locatie info
Region: Picardie
Latitude: 49.8947°N
Longitude: 2.2933°E
28 masl
Postcode: 80000
Temp/Neerslag /Baro Onweer/Dauwpunt
    Temp Baro 1h Neerslag Dauwpunt Wind UV Bewolking  
 06:15     21:41    Daglengte: 15:26 Vandaag
15:00
20°
1011.3 hPa 1.9 mm
48%
17.3°
4
Windvlaag: 0.9 m/s
82%
16:00
20°
1011.5 hPa 0.9 mm
82%
17.0°
4
Windvlaag: 0.2 m/s
63% warningclass
17:00
20°
1011.5 hPa 0.3 mm
82%
16.7°
4
Windvlaag: -0.1 m/s
56%
18:00
20°
1011.5 hPa 0.4 mm
82%
15.3°
4
Windvlaag: -0.4 m/s
21%
19:00
20°
1011.6 hPa
79%
14.7°
3
Windvlaag: -0.6 m/s
13%
20:00
20°
1011.6 hPa
64%
14.4°
3
Windvlaag: -0.2 m/s
14%
21:00
19°
1012.0 hPa
23%
15.0°
2
Windvlaag: -0.2 m/s
15%
22:00
18°
1012.3 hPa
19%
15.7°
1
Windvlaag: 0.9 m/s
13%
23:00
17°
1012.7 hPa
14%
15.8°
1
Windvlaag: 2.1 m/s
13%
 06:16     21:39    Daglengte: 15:23 Morgen
00:00
17°
1012.5 hPa
14%
15.3°
2
Windvlaag: 3 m/s
27%
01:00
16°
1012.4 hPa
14%
14.9°
2
Windvlaag: 4.2 m/s
41%
02:00
16°
1012.2 hPa
14%
14.7°
2
Windvlaag: 4.2 m/s
59%
03:00
16°
1011.9 hPa
14%
14.5°
2
Windvlaag: 3.4 m/s
69%
04:00
16°
1011.6 hPa
14%
14.6°
1
Windvlaag: 1.2 m/s
77%
05:00
16°
1011.2 hPa
14%
14.7°
1
Windvlaag: 1.8 m/s
83%
06:00
15°
1011.0 hPa
14%
14.6°
1
Windvlaag: 2.5 m/s
82%
07:00
16°
1011.3 hPa
33%
14.8°
1
Windvlaag: 3.8 m/s
73%
08:00
16°
1011.5 hPa
82%
15.3°
1
Windvlaag: 4.5 m/s
86%
09:00
17°
1011.7 hPa
81%
16.0°
2
Windvlaag: 3.7 m/s
68%
10:00
18°
1011.5 hPa 0.4 mm
82%
15.6°
3
Windvlaag: 3.6 m/s
78%
11:00
18°
1011.3 hPa
82%
16.1°
3
Windvlaag: 5.6 m/s
68%
12:00
19°
1011.4 hPa 1.1 mm
81%
16.5°
5
Windvlaag: 7.7 m/s
81%
13:00
19°
1011.3 hPa 0.7 mm
82%
15.9°
5
Windvlaag: 8.1 m/s
77%
14:00
19°
1010.9 hPa 0.5 mm
82%
15.7°
5
Windvlaag: 8.4 m/s
82%
15:00
20°
1010.6 hPa
72%
16.5°
4
Windvlaag: 7.7 m/s
78%
16:00
20°
1010.3 hPa
75%
17.2°
5
Windvlaag: 7.4 m/s
75%
17:00
20°
1010.1 hPa 0.9 mm
82%
16.5°
5
Windvlaag: 7.9 m/s
69%
18:00
19°
1010.0 hPa 1.2 mm
82%
15.8°
4
Windvlaag: 8.5 m/s
70% warningclass
19:00
18°
1010.0 hPa 1.9 mm
82%
15.5°
4
Windvlaag: 6.4 m/s
76%
20:00
18°
1009.9 hPa 2.0 mm
82%
14.8°
4
Windvlaag: 7.4 m/s
60%
21:00
17°
1009.9 hPa 2.0 mm
82%
14.9°
3
Windvlaag: 7.5 m/s
72%
22:00
17°
1010.3 hPa
74%
15.3°
3
Windvlaag: 7.6 m/s
45%
23:00
17°
1010.8 hPa
43%
13.9°
4
Windvlaag: 7.3 m/s
20%
 06:17     21:38    Daglengte: 15:21 Woensdag 28 Jul
00:00
16°
1010.7 hPa
82%
13.4°
4
Windvlaag: 7.1 m/s
13%
01:00
16°
1010.6 hPa
21%
13.1°
4
Windvlaag: 7.1 m/s
13%
02:00
16°
1010.6 hPa
14%
13.2°
4
Windvlaag: 7.1 m/s
36%
03:00
16°
1010.4 hPa
14%
13.1°
4
Windvlaag: 6.2 m/s
18%
04:00
15°
1010.2 hPa
23%
12.6°
5
Windvlaag: 6 m/s
61%
05:00
15°
1010.2 hPa
22%
12.4°
5
Windvlaag: 7.3 m/s
57%
06:00
15°
1010.2 hPa
14%
12.3°
5
Windvlaag: 7.4 m/s
21%
07:00
15°
1010.6 hPa
14%
12.4°
5
Windvlaag: 8 m/s
21%
08:00
15°
1010.8 hPa
15%
12.6°
5
Windvlaag: 8.1 m/s
21%
09:00
16°
1011.2 hPa
15%
12.8°
6
Windvlaag: 7.6 m/s
72%
10:00
17°
1011.5 hPa
14%
12.4°
6
Windvlaag: 7.8 m/s
20%
11:00
18°
1011.1 hPa
36%
14.0°
6
Windvlaag: 7.4 m/s
70%
12:00
19°
1011.1 hPa
42%
13.4°
6
Windvlaag: 7.5 m/s
28%
13:00
20°
1011.0 hPa
37%
12.1°
7
Windvlaag: 7.5 m/s
48%
14:00
21°
1010.8 hPa 3.1 mm
37%
10.9°
7
Windvlaag: 6.7 m/s
66%
15:00
21°
1010.9 hPa 2.9 mm
45%
11.5°
6
Windvlaag: 5.3 m/s
26%
16:00
21°
1011.1 hPa 3.1 mm
86%
11.9°
7
Windvlaag: 7.2 m/s
49%
17:00
21°
1010.9 hPa 3.1 mm
77%
11.6°
6
Windvlaag: 7.5 m/s
43%
18:00
21°
1010.6 hPa
32%
12.3°
5
Windvlaag: 5.6 m/s
16%
19:00
20°
1010.5 hPa 3.3 mm
22%
14.5°
6
Windvlaag: 6.4 m/s
76%
20:00
18°
1010.8 hPa 4.2 mm
21%
15.2°
5
Windvlaag: 3.9 m/s
78%
21:00
17°
1011.1 hPa 3.4 mm
21%
14.8°
4
Windvlaag: 3.7 m/s
81%
22:00
17°
1011.2 hPa
21%
12.9°
4
Windvlaag: 5.6 m/s
12%
23:00
16°
1011.3 hPa
21%
12.2°
4
Windvlaag: 5.6 m/s
78%
 06:19     21:37    Daglengte: 15:18 Donderdag 29 Jul
00:00
15°
1011.1 hPa 3.1 mm
21%
11.4°
5
Windvlaag: 8 m/s
80%
01:00
15°
1011.0 hPa
21%
12.5°
4
Windvlaag: 7.8 m/s
69%
02:00
14°
1010.8 hPa
21%
12.3°
4
Windvlaag: 7.3 m/s
33%
03:00
14°
1010.6 hPa
21%
11.9°
5
Windvlaag: 7.8 m/s
34%
04:00
14°
1010.6 hPa
21%
11.8°
5
Windvlaag: 7.5 m/s
41%
05:00
14°
1010.7 hPa
21%
11.9°
5
Windvlaag: 8 m/s
58%
06:00
13°
1011.0 hPa
21%
12.0°
5
Windvlaag: 7.8 m/s
37%
07:00
13°
1011.3 hPa
21%
11.9°
6
Windvlaag: 7.8 m/s
66%
08:00
14°
1011.6 hPa
22%
11.6°
6
Windvlaag: 7.8 m/s
49%
09:00
15°
1012.8 hPa
21%
12.3°
5
Windvlaag: 13.1 m/s
55%
10:00
16°
1012.9 hPa
38%
11.9°
5
Windvlaag: 12.6 m/s
84%
11:00
17°
1013.1 hPa
29%
10.2°
5
Windvlaag: 11.1 m/s
60%
12:00
18°
1013.3 hPa
23%
10.1°
6
Windvlaag: 11.8 m/s
81%
13:00
19°
1013.3 hPa
21%
11.1°
6
Windvlaag: 11.4 m/s
96%
14:00
19°
1013.1 hPa
21%
11.9°
6
Windvlaag: 11.3 m/s
81%
Temp/Neerslag /Baro Onweer/Dauwpunt
    Temp Baro Neerslag Dauwpunt Wind Bewolking  
 06:15     21:41    Daglengte: 15:26 Vandaag
17:00
20°
1011.5 hPa 3.1 mm 16.7°
4
56%
20:00
20°
1011.6 hPa 0.4 mm 14.4°
3
14%
23:00
17°
1012.7 hPa   15.8°
1
13%
 06:16     21:39    Daglengte: 15:23 Morgen
02:00
16°
1012.2 hPa   14.7°
2
59%
05:00
16°
1011.2 hPa   14.7°
1
83%
08:00
16°
1011.5 hPa   15.3°
1
86%
11:00
18°
1011.3 hPa 0.4 mm 16.1°
3
68%
14:00
19°
1010.9 hPa 2.3 mm 15.7°
5
82%
17:00
20°
1010.1 hPa 0.9 mm 16.5°
5
69%
20:00
18°
1009.9 hPa 5.1 mm 14.8°
4
60%
23:00
17°
1010.8 hPa 2.0 mm 13.9°
4
20%
 06:17     21:38    Daglengte: 15:21 Woensdag 28 Jul
02:00
16°
1010.6 hPa   13.2°
4
36%
05:00
15°
1010.2 hPa   12.4°
5
57%
08:00
15°
1010.8 hPa   12.6°
5
21%
11:00
18°
1011.1 hPa   14.0°
6
70%
14:00
21°
1010.8 hPa 3.1 mm 10.9°
7
66%
17:00
21°
1010.9 hPa 9.1 mm 11.6°
6
43%
20:00
18°
1010.8 hPa 7.4 mm 15.2°
5
78%
23:00
16°
1011.3 hPa 3.4 mm 12.2°
4
78%
 06:19     21:37    Daglengte: 15:18 Donderdag 29 Jul
02:00
14°
1010.8 hPa 3.1 mm 12.3°
4
33%
05:00
14°
1010.7 hPa   11.9°
5
58%
08:00
14°
1011.6 hPa   11.6°
6
49%
11:00
17°
1013.1 hPa   10.2°
5
60%
14:00
19°
1013.1 hPa   11.9°
6
81%
17:00
21°
1013.5 hPa 16.4 mm 11.0°
6
0%
20:00
18°
1013.5 hPa 16.4 mm 12.9°
4
0%
23:00
14°
1013.7 hPa 16.4 mm 11.5°
2
1%
 06:20     21:35    Daglengte: 15:15 Vrijdag 30 Jul
02:00
12°
1013.5 hPa 16.4 mm 10.7°
2
1%
05:00
12°
1013.0 hPa 16.4 mm 9.8°
2
1%
08:00
14°
1012.4 hPa 16.4 mm 10.6°
1
1%
11:00
20°
1011.0 hPa 16.4 mm 12.7°
4
1%
14:00
23°
1009.5 hPa 16.4 mm 13.8°
5
1%
17:00
22°
1008.7 hPa 16.4 mm 15.0°
4
1%
20:00
18°
1008.8 hPa 17.2 mm 15.8°
4
1%
23:00
14°
1009.3 hPa 17.3 mm 12.8°
2
1%
 06:22     21:34    Daglengte: 15:12 Zaterdag 31 Jul
02:00
13°
1009.0 hPa 17.3 mm 11.2°
3
0%
05:00
13°
1007.6 hPa 17.3 mm 11.2°
6
0%
08:00
13°
1007.1 hPa 17.4 mm 11.3°
8
0%
11:00
16°
1007.4 hPa 17.7 mm 13.3°
8
1%
14:00
18°
1008.4 hPa 19.0 mm 14.3°
8
1%
17:00
20°
1009.0 hPa 19.7 mm 13.3°
8
1%
20:00
18°
1009.8 hPa 19.9 mm 14.2°
5
0%
23:00
13°
1010.6 hPa 19.9 mm 12.4°
3
0%
 06:23     21:32    Daglengte: 15:09 Zondag 01 Aug
02:00
13°
1010.1 hPa 19.9 mm 11.9°
4
0%
05:00
13°
1009.7 hPa 19.9 mm 12.6°
4
1%
08:00
14°
1010.1 hPa 19.9 mm 11.9°
5
1%
11:00
18°
1010.4 hPa 20.1 mm 11.5°
7
1%
14:00
19°
1011.0 hPa 20.3 mm 10.7°
7
1%
17:00
18°
1012.1 hPa 20.3 mm 10.0°
7
1%
20:00
16°
1012.9 hPa 20.3 mm 11.3°
5
0%
23:00
12°
1014.6 hPa 20.3 mm 10.3°
3
0%
 06:24     21:31    Daglengte: 15:07 Maandag 02 Aug
02:00
11°
1015.2 hPa 20.3 mm 9.5°
2
0%
05:00
10°
1015.4 hPa 20.3 mm 8.8°
2
0%
08:00
12°
1016.1 hPa 20.3 mm 9.5°
2
0%
11:00
18°
1016.6 hPa 20.3 mm 10.8°
2
0%
14:00
20°
1016.1 hPa 41.0 mm 10.6°
3
0%
20:00
18°
1016.1 hPa 41.6 mm 12.0°
4
1%
 06:26     21:29    Daglengte: 15:03 Dinsdag 03 Aug
02:00
11°
1017.4 hPa 41.6 mm 9.0°
2
0%
08:00
12°
1017.7 hPa 41.6 mm 8.9°
2
1%
14:00
22°
1016.7 hPa 41.6 mm 11.5°
4
0%
20:00
21°
1015.0 hPa 41.8 mm 15.5°
2
1%
 06:27     21:27    Daglengte: 15:00 Woensdag 04 Aug
02:00
15°
1014.5 hPa 42.0 mm 12.2°
2
1%
08:00
15°
1013.3 hPa 42.0 mm 13.6°
3
0%
14:00
20°
1012.6 hPa 42.0 mm 13.3°
7
1%
20:00
19°
1012.0 hPa 42.7 mm 14.7°
5
1%
 06:29     21:26    Daglengte: 14:57 Donderdag 05 Aug
02:00
13°
1012.5 hPa 42.8 mm 12.1°
3
0%
08:00
14°
1010.7 hPa 42.8 mm 13.1°
4
1%
14:00
20°
1014.4 hPa 0.8 mm 14.0°
3
67%
20:00
19°
1013.5 hPa 1.3 mm 14.0°
3
63%
 06:30     21:24    Daglengte: 14:54 Vrijdag 06 Aug
02:00
14°
1014.1 hPa 0.4 mm 12.3°
3
56%
08:00
14°
1014.1 hPa 0.3 mm 12.5°
3
50%
14:00
20°
1014.6 hPa 0.8 mm 13.5°
5
49%
20:00
18°
1014.4 hPa 0.6 mm 13.2°
4
42%
 06:31     21:22    Daglengte: 14:51 Zaterdag 07 Aug
02:00
14°
1015.3 hPa 0.2 mm 11.7°
3
42%
08:00
14°
1014.9 hPa 0.6 mm 12.2°
3
48%
14:00
20°
1014.9 hPa 0.5 mm 13.4°
4
55%
20:00
19°
1014.3 hPa 0.6 mm 14.2°
4
66%
 06:33     21:21    Daglengte: 14:48 Zondag 08 Aug
02:00
14°
1015.0 hPa 0.6 mm 12.1°
3
48%
08:00
15°
1014.9 hPa 0.4 mm 12.6°
3
57%
14:00
21°
1015.3 hPa 0.7 mm 13.7°
4
56%
20:00
19°
1015.1 hPa 0.7 mm 13.7°
3
50%
 06:34     21:19    Daglengte: 14:45 Maandag 09 Aug
02:00
14°
1016.7 hPa 0.1 mm 11.9°
2
37%
08:00
14°
1017.1 hPa 0.3 mm 12.4°
2
43%
14:00
21°
1017.7 hPa 0.5 mm 13.6°
3
52%
20:00
19°
1017.2 hPa 0.6 mm 13.9°
2
50%
 06:36     21:17    Daglengte: 14:41 Dinsdag 10 Aug
02:00
15°
1018.2 hPa 0.2 mm 12.1°
1
50%
08:00
15°
1018.2 hPa 0.1 mm 12.7°
2
48%
14:00
22°
1018.4 hPa 0.4 mm 13.7°
3
50%
  CAPE Lifted Index Hail Supercell Tornado SRH 3km CL BTM PRES CL TOP PRES Swiss DWD icon SMHI TS
 06:15     21:41    Daglengte: 15:26 Vandaag
15:00 477 J/kg -1.9 K 0 % 0 % 0 % 0 m²/s² 0 0 -0.91 80
16:00 364 J/kg -1.6 K 0 % 0 % 0 % 0 m²/s² 0 0 0.47 95
17:00 299 J/kg -1.4 K 0 % 0 % 0 % 0 m²/s² 0 0 1 80
18:00 237 J/kg -1.1 K 0 % 0 % 0 % 0 m²/s² 0 0 1.24 80
19:00 253 J/kg -1.3 K 0 % 0 % 0 % 0 m²/s² 0 0 1.34 2
20:00 187 J/kg -1.0 K 0 % 0 % 0 % 0 m²/s² 0 0 2.12 2
21:00 165 J/kg -0.9 K 0 % 0 % 0 % 0 m²/s² 0 0 2.76 2
22:00 83 J/kg -0.6 K 0 % 0 % 0 % 0 m²/s² 0 0 3.36 1
23:00 51 J/kg -0.5 K 0 % 0 % 0 % 0 m²/s² 0 0 3.34 2
 06:16     21:39    Daglengte: 15:23 Morgen
00:00 0 J/kg 0.0 K 0 % 0 % 0 % 0 m²/s² 0 0 3.93 3
01:00 0 J/kg 1.4 K 0 % 0 % 0 % 0 m²/s² 0 0 5.87 3
02:00 0 J/kg 0.2 K 0 % 0 % 0 % 0 m²/s² 0 0 4.34 3
03:00 0 J/kg -0.7 K 0 % 0 % 0 % 0 m²/s² 0 0 2.06 3
04:00 0 J/kg -0.9 K 0 % 0 % 0 % 0 m²/s² 0 0 1.62 3
05:00 0 J/kg -1.0 K 0 % 0 % 0 % 0 m²/s² 0 0 0.86 3
06:00 0 J/kg -0.6 K 0 % 0 % 0 % 0 m²/s² 0 0 0.15 3
07:00 0 J/kg -0.3 K 0 % 0 % 0 % 0 m²/s² 0 0 0.09 3
08:00 11 J/kg 0.0 K 0 % 0 % 0 % 0 m²/s² 0 0 0.24 3
09:00 123 J/kg 0.3 K 0 % 0 % 0 % 0 m²/s² 0 0 0.54 3
10:00 229 J/kg -0.5 K 0 % 0 % 0 % 0 m²/s² 0 0 -0.17 80
11:00 355 J/kg -1.1 K 0 % 0 % 0 % 0 m²/s² 0 0 -1.01 61
12:00 441 J/kg -1.4 K 0 % 0 % 0 % 0 m²/s² 0 0 -1.22 80
13:00 415 J/kg -1.3 K 0 % 0 % 0 % 0 m²/s² 0 0 -1.09 80
14:00 579 J/kg -2.2 K 0 % 0 % 0 % 0 m²/s² 0 0 -1.78 61
15:00 552 J/kg -2.2 K 0 % 0 % 0 % 0 m²/s² 0 0 -1.72 3
16:00 561 J/kg -2.2 K 0 % 0 % 0 % 0 m²/s² 0 0 -1.72 3
17:00 553 J/kg -2.3 K 0 % 0 % 0 % 0 m²/s² 0 0 -1.73 80
18:00 591 J/kg -2.3 K 0 % 0 % 0 % 0 m²/s² 0 0 -2.27 61
19:00 363 J/kg -1.6 K 0 % 0 % 0 % 0 m²/s² 0 0 -1.09 61
20:00 272 J/kg -1.5 K 0 % 0 % 0 % 0 m²/s² 0 0 -0.09 61
21:00 322 J/kg -2.0 K 0 % 0 % 0 % 0 m²/s² 0 0 -1.22 61
22:00 526 J/kg -2.1 K 0 % 0 % 0 % 0 m²/s² 0 0 0.03 3
23:00 302 J/kg -1.0 K 0 % 0 % 0 % 0 m²/s² 0 0 1.07 3
 06:17     21:38    Daglengte: 15:21 Woensdag 28 Jul
00:00 5 J/kg 1.9 K 0 % 0 % 0 % 0 m²/s² 0 0 4.03 2
01:00 0 J/kg 4.3 K 0 % 0 % 0 % 0 m²/s² 0 0 6.49 2
02:00 0 J/kg 4.2 K 0 % 0 % 0 % 0 m²/s² 0 0 6.9 3
03:00 0 J/kg 5.1 K 0 % 0 % 0 % 0 m²/s² 0 0 7.8 2
04:00 0 J/kg 5.8 K 0 % 0 % 0 % 0 m²/s² 0 0 9.1 3
05:00 0 J/kg 4.1 K 0 % 0 % 0 % 0 m²/s² 0 0 7.67 3
06:00 0 J/kg 3.7 K 0 % 0 % 0 % 0 m²/s² 0 0 7.18 2
07:00 0 J/kg 3.5 K 0 % 0 % 0 % 0 m²/s² 0 0 7.07 2
08:00 0 J/kg 3.3 K 0 % 0 % 0 % 0 m²/s² 0 0 5.85 2
09:00 0 J/kg 3.7 K 0 % 0 % 0 % 0 m²/s² 0 0 6.04 3
10:00 11 J/kg 4.1 K 0 % 0 % 0 % 0 m²/s² 0 0 6.71 2
11:00 60 J/kg 3.2 K 0 % 0 % 0 % 0 m²/s² 0 0 6.29 3
12:00 99 J/kg 2.3 K 0 % 0 % 0 % 0 m²/s² 0 0 5.75 2
13:00 76 J/kg 2.7 K 0 % 0 % 0 % 0 m²/s² 0 0 6.06 3
14:00 54 J/kg 3.2 K 0 % 0 % 0 % 0 m²/s² 0 0 6.92 3
15:00 85 J/kg 2.7 K 0 % 0 % 0 % 0 m²/s² 0 0 7.05 2
16:00 112 J/kg 2.4 K 0 % 0 % 0 % 0 m²/s² 0 0 6.54 2
17:00 139 J/kg 2.4 K 0 % 0 % 0 % 0 m²/s² 0 0 5.85 2
18:00 146 J/kg 2.4 K 0 % 0 % 0 % 0 m²/s² 0 0 4.65 2
19:00 141 J/kg 2.4 K 0 % 0 % 0 % 0 m²/s² 0 0 5.94 2
20:00 158 J/kg 2.8 K 0 % 0 % 0 % 0 m²/s² 0 0 5.26 2
21:00 189 J/kg 3.9 K 0 % 0 % 0 % 0 m²/s² 0 0 5.34 2
22:00 7 J/kg 6.4 K 0 % 0 % 0 % 0 m²/s² 0 0 11.08 2
23:00 0 J/kg 7.0 K 0 % 0 % 0 % 0 m²/s² 0 0 13.3 1
 06:19     21:37    Daglengte: 15:18 Donderdag 29 Jul
00:00 0 J/kg 7.4 K 0 % 0 % 0 % 0 m²/s² 0 0 13.91 1
01:00 2 J/kg 7.6 K 0 % 0 % 0 % 0 m²/s² 0 0 14.53 1
02:00 10 J/kg 8.1 K 0 % 0 % 0 % 0 m²/s² 0 0 15.24 2
03:00 9 J/kg 8.9 K 0 % 0 % 0 % 0 m²/s² 0 0 16.04 2
04:00 3 J/kg 9.4 K 0 % 0 % 0 % 0 m²/s² 0 0 16.12 3
05:00 0 J/kg 9.9 K 0 % 0 % 0 % 0 m²/s² 0 0 16.2 3
06:00 0 J/kg 9.5 K 0 % 0 % 0 % 0 m²/s² 0 0 14.96 2
07:00 0 J/kg 9.5 K 0 % 0 % 0 % 0 m²/s² 0 0 14.54 3
08:00 54 J/kg 9.5 K 0 % 0 % 0 % 0 m²/s² 0 0 16.34 3
09:00 80 J/kg 8.5 K 0 % 0 % 0 % 0 m²/s² 0 0 15.13 3
10:00 71 J/kg 7.6 K 0 % 0 % 0 % 0 m²/s² 0 0 13.63 3
11:00 60 J/kg 7.2 K 0 % 0 % 0 % 0 m²/s² 0 0 12.3 3
12:00 68 J/kg 6.2 K 0 % 0 % 0 % 0 m²/s² 0 0 10.7 3
13:00 78 J/kg 5.4 K 0 % 0 % 0 % 0 m²/s² 0 0 9.9 3
14:00 92 J/kg 4.2 K 0 % 0 % 0 % 0 m²/s² 0 0 8.94 3
Temp Baro Wind Neerslag
  EWN Forecast EWN WRFDA DWD ICON FMI HIRLAM MET Norway GFS
 06:15     21:41    Daglengte: 15:26 Vandaag
17:00 20.5° 1011.5 hPa 4.0 m/s 3.1 mm 23.1° 1010.5 hPa 5.3 m/s 1.2 mm 20.5° 1012.0 hPa 4.0 m/s 2.4 mm 20.8° 1010.6 hPa 4.3 m/s 0.0 mm 21.5° 1011.2 hPa 4.7 m/s
20:00 19.9° 1011.6 hPa 2.6 m/s 0.4 mm 21.6° 1010.4 hPa 3.9 m/s 1.3 mm 19.7° 1011.8 hPa 2.3 m/s 0.7 mm 20.3° 1011.2 hPa 3.7 m/s 0.0 mm 20.0° 1011.5 hPa 3.1 m/s
23:00 17.2° 1012.7 hPa 1.3 m/s 0.0 mm 16.6° 1011.5 hPa 2.2 m/s 1.3 mm 17.5° 1013.1 hPa 0.5 m/s 0.0 mm 17.1° 1012.5 hPa 1.6 m/s 0.0 mm 16.1° 1012.2 hPa 1.4 m/s
 06:16     21:39    Daglengte: 15:23 Morgen
02:00 16.0° 1012.2 hPa 1.9 m/s 0.0 mm 16.7° 1011.0 hPa 3.0 m/s 1.3 mm 16.1° 1012.5 hPa 1.3 m/s 0.0 mm 15.9° 1011.8 hPa 1.8 m/s 0.0 mm 15.7° 1012.3 hPa 2.5 m/s
05:00 15.6° 1011.2 hPa 1.1 m/s 0.0 mm 15.4° 1010.7 hPa 2.4 m/s 1.3 mm 16.2° 1011.6 hPa 0.9 m/s 0.0 mm 15.6° 1010.8 hPa 1.1 m/s 0.0 mm 15.6° 1011.1 hPa 2.0 m/s
08:00 16.4° 1011.5 hPa 1.4 m/s 0.0 mm 17.5° 1011.0 hPa 4.6 m/s 1.3 mm 16.3° 1011.7 hPa 0.8 m/s 0.0 mm 16.3° 1010.7 hPa 0.8 m/s 0.0 mm 16.4° 1010.9 hPa 1.7 m/s
11:00 18.1° 1011.3 hPa 3.1 m/s 0.4 mm 19.0° 1011.0 hPa 2.2 m/s 1.5 mm 17.9° 1011.9 hPa 3.2 m/s 0.7 mm 18.8° 1010.2 hPa 3.5 m/s 0.0 mm 18.6° 1011.0 hPa 4.0 m/s
14:00 18.8° 1010.9 hPa 4.6 m/s 2.3 mm 21.6° 1010.5 hPa 4.6 m/s 3.4 mm 19.1° 1011.4 hPa 4.6 m/s 1.0 mm 18.5° 1010.1 hPa 4.8 m/s 0.0 mm 21.5° 1010.5 hPa 5.9 m/s
17:00 19.8° 1010.1 hPa 4.5 m/s 0.9 mm 23.1° 1008.8 hPa 3.5 m/s 8.1 mm 18.6° 1010.6 hPa 4.6 m/s 0.3 mm 20.0° 1009.8 hPa 4.2 m/s 0.0 mm 18.2° 1010.3 hPa 6.3 m/s
20:00 17.8° 1009.9 hPa 3.6 m/s 5.1 mm 19.2° 1008.8 hPa 2.7 m/s 20.7 mm 17.4° 1010.0 hPa 3.7 m/s 0.8 mm 19.5° 1010.0 hPa 2.7 m/s 0.0 mm 18.5° 1009.8 hPa 4.9 m/s
23:00 16.9° 1010.8 hPa 3.5 m/s 2.0 mm 17.9° 1009.6 hPa 3.8 m/s 24.1 mm 16.5° 1010.2 hPa 2.8 m/s 0.6 mm 18.5° 1011.7 hPa 3.4 m/s 0.0 mm 16.1° 1010.7 hPa 4.0 m/s
 06:17     21:38    Daglengte: 15:21 Woensdag 28 Jul
02:00 15.8° 1010.6 hPa 3.8 m/s 0.0 mm 13.6° 1009.8 hPa 2.4 m/s 24.3 mm 16.2° 1009.5 hPa 3.4 m/s 0.0 mm 16.0° 1011.5 hPa 3.9 m/s 0.0 mm 14.3° 1010.8 hPa 3.9 m/s
05:00 15.2° 1010.2 hPa 4.9 m/s 0.0 mm 13.5° 1009.1 hPa 4.9 m/s 24.3 mm 15.5° 1009.8 hPa 5.0 m/s 0.0 mm 15.7° 1011.2 hPa 4.7 m/s 0.0 mm 12.5° 1010.9 hPa 4.4 m/s
08:00 15.1° 1010.8 hPa 5.3 m/s 0.0 mm 14.4° 1010.0 hPa 6.2 m/s 24.3 mm 15.0° 1010.6 hPa 5.0 m/s 0.0 mm 15.5° 1012.3 hPa 5.2 m/s 0.0 mm 13.5° 1011.6 hPa 5.3 m/s
11:00 17.8° 1011.1 hPa 6.1 m/s 0.0 mm 17.9° 1010.0 hPa 6.7 m/s 24.3 mm 18.3° 1011.6 hPa 6.1 m/s 0.0 mm 18.0° 1011.6 hPa 6.7 m/s
14:00 20.8° 1010.8 hPa 6.6 m/s 3.1 mm 21.8° 1009.8 hPa 7.3 m/s 24.4 mm 21.0° 1010.8 hPa 6.6 m/s 0.0 mm 20.5° 1011.5 hPa 7.1 m/s
17:00 20.9° 1010.9 hPa 6.2 m/s 9.1 mm 22.1° 1009.8 hPa 6.5 m/s 24.4 mm 21.3° 1011.1 hPa 6.4 m/s 0.0 mm 20.8° 1010.6 hPa 6.8 m/s
20:00 18.3° 1010.8 hPa 5.0 m/s 7.4 mm 18.2° 1009.4 hPa 4.4 m/s 25.1 mm 19.9° 1010.9 hPa 4.8 m/s 0.0 mm 17.8° 1010.4 hPa 4.9 m/s
23:00 16.0° 1011.3 hPa 3.8 m/s 3.4 mm 16.5° 1009.8 hPa 3.9 m/s 26.8 mm 16.3° 1011.8 hPa 3.1 m/s 0.0 mm 15.4° 1011.5 hPa 5.7 m/s
 06:19     21:37    Daglengte: 15:18 Donderdag 29 Jul
02:00 14.5° 1010.8 hPa 4.4 m/s 3.1 mm 14.3° 1009.4 hPa 4.4 m/s 27.0 mm 14.4° 1012.2 hPa 3.1 m/s 0.0 mm 13.1° 1011.7 hPa 5.6 m/s
05:00 13.6° 1010.7 hPa 5.2 m/s 0.0 mm 12.6° 1009.4 hPa 5.2 m/s 27.0 mm 13.8° 1012.2 hPa 3.3 m/s 0.0 mm 12.1° 1012.0 hPa 5.8 m/s
08:00 14.1° 1011.6 hPa 5.9 m/s 0.0 mm 14.1° 1010.0 hPa 6.9 m/s 27.0 mm 14.3° 1013.0 hPa 4.0 m/s 0.0 mm 13.4° 1012.6 hPa 6.5 m/s
11:00 17.2° 1013.1 hPa 5.3 m/s 0.0 mm 18.0° 1010.9 hPa 7.7 m/s 27.0 mm 17.0° 1013.7 hPa 4.7 m/s 0.0 mm 17.6° 1013.8 hPa 7.0 m/s
14:00 18.8° 1013.1 hPa 5.7 m/s 0.0 mm 18.8° 1011.6 hPa 8.1 m/s 27.0 mm 18.8° 1013.5 hPa 5.1 m/s 0.0 mm 20.3° 1013.9 hPa 6.9 m/s
17:00 20.6° 1013.5 hPa 6.4 m/s 16.4 mm 20.6° 1013.5 hPa 6.4 m/s 16.4 mm
20:00 18.2° 1013.5 hPa 4.0 m/s 16.4 mm 18.2° 1013.5 hPa 4.0 m/s 16.4 mm
23:00 13.8° 1013.7 hPa 2.1 m/s 16.4 mm 13.8° 1013.7 hPa 2.1 m/s 16.4 mm
 06:20     21:35    Daglengte: 15:15 Vrijdag 30 Jul
02:00 12.5° 1013.5 hPa 2.4 m/s 16.4 mm 12.5° 1013.5 hPa 2.4 m/s 16.4 mm
05:00 12.3° 1013.0 hPa 2.1 m/s 16.4 mm 12.3° 1013.0 hPa 2.1 m/s 16.4 mm
08:00 14.2° 1012.4 hPa 1.4 m/s 16.4 mm 14.2° 1012.4 hPa 1.4 m/s 16.4 mm
11:00 19.6° 1011.0 hPa 3.6 m/s 16.4 mm 19.6° 1011.0 hPa 3.6 m/s 16.4 mm
14:00 22.6° 1009.5 hPa 4.8 m/s 16.4 mm 22.6° 1009.5 hPa 4.8 m/s 16.4 mm
17:00 21.5° 1008.7 hPa 4.1 m/s 16.4 mm 21.5° 1008.7 hPa 4.1 m/s 16.4 mm
20:00 18.0° 1008.8 hPa 4.2 m/s 17.2 mm 18.0° 1008.8 hPa 4.2 m/s 17.2 mm
23:00 14.0° 1009.3 hPa 1.5 m/s 17.3 mm 14.0° 1009.3 hPa 1.5 m/s 17.3 mm
 06:22     21:34    Daglengte: 15:12 Zaterdag 31 Jul
02:00 12.7° 1009.0 hPa 3.3 m/s 17.3 mm 12.7° 1009.0 hPa 3.3 m/s 17.3 mm
05:00 12.8° 1007.6 hPa 5.9 m/s 17.3 mm 12.8° 1007.6 hPa 5.9 m/s 17.3 mm
08:00 13.2° 1007.1 hPa 7.7 m/s 17.4 mm 13.2° 1007.1 hPa 7.7 m/s 17.4 mm
11:00 16.0° 1007.4 hPa 8.3 m/s 17.7 mm 16.0° 1007.4 hPa 8.3 m/s 17.7 mm
14:00 18.1° 1008.4 hPa 8.4 m/s 19.0 mm 18.1° 1008.4 hPa 8.4 m/s 19.0 mm
17:00 19.8° 1009.0 hPa 7.8 m/s 19.7 mm 19.8° 1009.0 hPa 7.8 m/s 19.7 mm
20:00 18.0° 1009.8 hPa 5.1 m/s 19.9 mm 18.0° 1009.8 hPa 5.1 m/s 19.9 mm
23:00 13.3° 1010.6 hPa 3.3 m/s 19.9 mm 13.3° 1010.6 hPa 3.3 m/s 19.9 mm
 06:23     21:32    Daglengte: 15:09 Zondag 01 Aug
02:00 12.7° 1010.1 hPa 3.9 m/s 19.9 mm 12.7° 1010.1 hPa 3.9 m/s 19.9 mm
05:00 13.0° 1009.7 hPa 3.8 m/s 19.9 mm 13.0° 1009.7 hPa 3.8 m/s 19.9 mm
08:00 13.7° 1010.1 hPa 4.7 m/s 19.9 mm 13.7° 1010.1 hPa 4.7 m/s 19.9 mm
11:00 17.6° 1010.4 hPa 6.6 m/s 20.1 mm 17.6° 1010.4 hPa 6.6 m/s 20.1 mm
14:00 19.1° 1011.0 hPa 7.0 m/s 20.3 mm 19.1° 1011.0 hPa 7.0 m/s 20.3 mm
17:00 18.4° 1012.1 hPa 6.8 m/s 20.3 mm 18.4° 1012.1 hPa 6.8 m/s 20.3 mm
20:00 16.2° 1012.9 hPa 4.7 m/s 20.3 mm 16.2° 1012.9 hPa 4.7 m/s 20.3 mm
23:00 11.6° 1014.6 hPa 2.8 m/s 20.3 mm 11.6° 1014.6 hPa 2.8 m/s 20.3 mm
 06:24     21:31    Daglengte: 15:07 Maandag 02 Aug
02:00 10.8° 1015.2 hPa 2.1 m/s 20.3 mm 10.8° 1015.2 hPa 2.1 m/s 20.3 mm
05:00 10.1° 1015.4 hPa 1.6 m/s 20.3 mm 10.1° 1015.4 hPa 1.6 m/s 20.3 mm
08:00 12.0° 1016.1 hPa 1.6 m/s 20.3 mm 12.0° 1016.1 hPa 1.6 m/s 20.3 mm
11:00 17.6° 1016.6 hPa 2.5 m/s 20.3 mm 17.6° 1016.6 hPa 2.5 m/s 20.3 mm
14:00 20.2° 1016.1 hPa 2.8 m/s 20.6 mm 20.2° 1016.1 hPa 2.8 m/s 20.6 mm
20:00 17.7° 1016.1 hPa 3.6 m/s 20.8 mm 17.7° 1016.1 hPa 3.6 m/s 20.8 mm
 06:26     21:29    Daglengte: 15:03 Dinsdag 03 Aug
02:00 10.8° 1017.4 hPa 1.8 m/s 20.8 mm 10.7° 1017.4 hPa 1.8 m/s 20.8 mm
08:00 12.0° 1017.7 hPa 1.9 m/s 20.8 mm 12.0° 1017.7 hPa 1.9 m/s 20.8 mm
14:00 21.7° 1016.7 hPa 3.9 m/s 20.8 mm 21.7° 1016.7 hPa 3.9 m/s 20.8 mm
20:00 20.6° 1015.0 hPa 2.2 m/s 21.0 mm 20.6° 1015.0 hPa 2.2 m/s 21.0 mm
 06:27     21:27    Daglengte: 15:00 Woensdag 04 Aug
02:00 15.4° 1014.5 hPa 1.9 m/s 21.0 mm 15.4° 1014.5 hPa 1.9 m/s 21.0 mm
08:00 15.1° 1013.3 hPa 2.7 m/s 21.0 mm 15.1° 1013.3 hPa 2.7 m/s 21.0 mm
14:00 20.5° 1012.6 hPa 7.0 m/s 21.0 mm 20.5° 1012.6 hPa 7.0 m/s 21.0 mm
20:00 19.3° 1012.0 hPa 5.4 m/s 21.4 mm 19.3° 1012.0 hPa 5.4 m/s 21.4 mm
 06:29     21:26    Daglengte: 14:57 Donderdag 05 Aug
02:00 12.9° 1012.5 hPa 3.4 m/s 21.4 mm 12.9° 1012.5 hPa 3.4 m/s 21.4 mm
08:00 14.3° 1010.7 hPa 3.6 m/s 21.4 mm 14.3° 1010.7 hPa 3.6 m/s 21.4 mm
14:00 20.5° 1014.4 hPa 3.2 m/s 0.8 mm
20:00 19.1° 1013.5 hPa 2.8 m/s 1.3 mm
 06:30     21:24    Daglengte: 14:54 Vrijdag 06 Aug
02:00 14.4° 1014.1 hPa 2.7 m/s 0.4 mm
08:00 14.5° 1014.1 hPa 3.4 m/s 0.3 mm
14:00 20.2° 1014.6 hPa 4.9 m/s 0.8 mm
20:00 18.2° 1014.4 hPa 4.3 m/s 0.6 mm
 06:31     21:22    Daglengte: 14:51 Zaterdag 07 Aug
02:00 13.8° 1015.3 hPa 2.9 m/s 0.2 mm
08:00 14.3° 1014.9 hPa 3.0 m/s 0.6 mm
14:00 20.1° 1014.9 hPa 4.1 m/s 0.5 mm
20:00 18.6° 1014.3 hPa 3.5 m/s 0.6 mm
 06:33     21:21    Daglengte: 14:48 Zondag 08 Aug
02:00 14.4° 1015.0 hPa 2.9 m/s 0.6 mm
08:00 14.7° 1014.9 hPa 2.7 m/s 0.4 mm
14:00 20.6° 1015.3 hPa 3.9 m/s 0.7 mm
20:00 18.8° 1015.1 hPa 3.3 m/s 0.7 mm
 06:34     21:19    Daglengte: 14:45 Maandag 09 Aug
02:00 14.3° 1016.7 hPa 2.1 m/s 0.1 mm
08:00 14.2° 1017.1 hPa 2.1 m/s 0.3 mm
14:00 20.8° 1017.7 hPa 2.8 m/s 0.5 mm
20:00 19.4° 1017.2 hPa 2.3 m/s 0.6 mm
 06:36     21:17    Daglengte: 14:41 Dinsdag 10 Aug
02:00 14.7° 1018.2 hPa 1.2 m/s 0.2 mm
08:00 14.9° 1018.2 hPa 1.6 m/s 0.1 mm
14:00 21.7° 1018.4 hPa 2.6 m/s 0.4 mm
FMI Hirlam - 7.5 km EWN WRFDA - 12 km DWD ICON - 7 km GFS - 25 km Basiskaart